Weather reports worldwide

Advertisment
Jativa, Spain (8290): temperature & dewpoint: 06.12.2018 00:00:00 - 12.12.2018 00:00:00 (CET)Jativa, Spain (8290): wind speed & gusts: 06.12.2018 00:00:00 - 12.12.2018 00:00:00 (CET)Jativa, Spain (8290): wind direction: 06.12.2018 00:00:00 - 12.12.2018 00:00:00 (CET)Jativa, Spain (8290): reduced air pressure: 06.12.2018 00:00:00 - 12.12.2018 00:00:00 (CET)Jativa, Spain (8290): visibility: 06.12.2018 00:00:00 - 12.12.2018 00:00:00 (CET)Jativa, Spain (8290): sunshine duration: 06.12.2018 00:00:00 - 12.12.2018 00:00:00 (CET)Jativa, Spain (8290): precipitation: 06.12.2018 00:00:00 - 12.12.2018 00:00:00 (CET)
Date & Time tt [°C] td [°C] ff [km/h] ff [kn] fx [km/h] fx [kn] dd ppp [hPa] vv [km] sd [min] rr [mm]
12.12.2018 00:00:00 8,5 7,1 5 3 14 8 WSW 1020,6 12 0 0,0
11.12.2018 23:00:00 8,3 7,3 9 5 14 8 W 1020,7 8 0 0,0
11.12.2018 22:00:00 8,7 7,4 3 2 14 7 W 1020,7 6 0 0,0
11.12.2018 21:00:00 9,8 8,4 5 3 9 5 W 1020,6 6 0 0,0
11.12.2018 20:00:00 11,2 9,8 5 3 9 5 S 1020,9 11 0 0,0
11.12.2018 19:00:00 12,3 10,2 4 2 11 6 S 1020,2 11 0 -
11.12.2018 18:00:00 14,6 7,8 3 2 11 6 E 1019,7 15 0 0,0
11.12.2018 17:00:00 17,9 7,6 0 0 4 2 N 1019,0 20 34 0,0
11.12.2018 16:00:00 18,8 7,3 3 2 6 3 N 1019,1 20 58 0,0
11.12.2018 15:00:00 18,8 6,5 1 1 6 4 N 1019,4 20 60 0,0
11.12.2018 14:00:00 17,5 4,5 2 1 6 3 E 1020,6 20 60 0,0
11.12.2018 13:00:00 16,3 7,0 1 1 6 3 ESE 1021,6 20 60 -
11.12.2018 12:00:00 13,8 7,3 4 2 8 4 E 1022,8 15 60 0,0
11.12.2018 11:00:00 10,8 6,4 2 1 5 3 W 1023,5 13 60 0,0
11.12.2018 10:00:00 7,9 5,5 4 2 8 4 ESE 1023,7 16 60 0,0
11.12.2018 09:00:00 5,5 4,1 3 1 14 8 SSW 1023,7 16 25 0,0
11.12.2018 08:00:00 4,4 2,9 4 2 9 5 W 1023,9 12 0 0,0
11.12.2018 07:00:00 5,5 4,1 4 2 7 4 SW 1024,0 19 0 -
11.12.2018 06:00:00 5,3 3,9 1 1 5 3 NW 1024,3 15 0 0,0
11.12.2018 05:00:00 5,4 3,8 3 2 10 5 SW 1024,6 17 0 0,0
11.12.2018 04:00:00 6,3 4,1 6 3 15 8 WSW 1025,0 19 0 0,0
11.12.2018 03:00:00 6,4 4,1 8 4 13 7 WSW 1025,5 20 0 0,0
11.12.2018 02:00:00 6,9 4,3 6 4 14 7 WSW 1026,0 20 0 0,0
11.12.2018 01:00:00 7,2 4,5 6 3 13 7 W 1026,4 18 0 -
11.12.2018 00:00:00 7,4 4,6 6 3 10 6 W 1027,1 20 0 0,0
10.12.2018 23:00:00 8,3 5,3 4 2 20 11 W 1027,2 20 0 0,0
10.12.2018 22:00:00 8,8 5,8 11 6 17 9 WSW 1027,3 20 0 0,0
10.12.2018 21:00:00 9,5 7,3 7 4 12 6 WSW 1027,5 15 0 0,0
10.12.2018 20:00:00 10,8 8,4 10 6 14 7 WSW 1027,3 14 0 0,0
10.12.2018 19:00:00 12,7 8,9 6 4 9 5 WSW 1026,8 15 0 -
10.12.2018 18:00:00 14,3 8,3 4 2 11 6 E 1026,5 20 0 0,0
10.12.2018 17:00:00 16,8 6,5 7 4 11 6 N 1026,0 20 34 0,0
10.12.2018 16:00:00 18,9 2,3 8 4 16 8 N 1026,0 20 49 0,0
10.12.2018 15:00:00 19,1 1,1 7 4 12 6 N 1026,3 20 60 0,0
10.12.2018 14:00:00 18,3 0,9 8 4 13 7 ENE 1027,0 20 60 0,0
10.12.2018 13:00:00 17,5 3,4 5 3 8 5 NE 1028,0 20 60 -
10.12.2018 12:00:00 16,3 0,9 2 1 10 5 NNE 1029,2 20 60 0,0
10.12.2018 11:00:00 14,1 2,1 3 1 11 6 S 1030,0 20 60 0,0
10.12.2018 10:00:00 9,7 3,9 3 2 10 5 SSE 1030,1 20 60 0,0
10.12.2018 09:00:00 6,5 1,9 2 1 9 5 WSW 1029,7 20 26 0,0
10.12.2018 08:00:00 4,6 1,1 6 3 13 7 W 1029,3 20 0 0,0
10.12.2018 07:00:00 5,2 1,5 4 2 6 3 SW 1028,9 20 0 -
10.12.2018 06:00:00 5,0 2,3 3 1 10 5 ESE 1028,2 20 0 0,0
10.12.2018 05:00:00 6,4 2,9 4 2 16 9 ENE 1028,4 20 0 0,0
10.12.2018 04:00:00 6,9 2,9 3 1 14 8 SSW 1028,3 20 0 0,0
10.12.2018 03:00:00 7,3 3,8 4 2 14 8 W 1028,5 20 0 0,0
10.12.2018 02:00:00 8,0 4,3 7 4 16 9 WSW 1028,4 20 0 0,0
10.12.2018 01:00:00 8,3 4,8 3 2 14 8 E 1028,5 20 0 -
10.12.2018 00:00:00 9,2 5,0 7 4 10 5 WSW 1028,3 20 0 0,0
09.12.2018 23:00:00 9,2 5,8 2 1 16 9 WSW 1028,2 20 0 0,0
09.12.2018 22:00:00 10,5 6,4 5 3 12 6 SW 1028,1 20 0 0,0
09.12.2018 21:00:00 11,2 7,0 4 2 11 6 NNW 1027,8 20 0 0,0
09.12.2018 20:00:00 14,0 7,1 6 4 11 6 SW 1027,1 20 0 0,0
09.12.2018 19:00:00 14,9 7,4 4 2 10 5 WSW 1026,3 20 0 -
09.12.2018 18:00:00 18,2 7,0 4 2 7 4 S 1025,6 20 0 0,0
09.12.2018 17:00:00 21,9 8,0 5 3 9 5 N 1025,1 20 34 0,0
09.12.2018 16:00:00 25,3 5,5 2 1 8 4 SE 1024,8 20 48 0,0
09.12.2018 15:00:00 24,9 5,1 2 1 6 3 NE 1025,2 20 60 0,0
09.12.2018 14:00:00 23,0 5,8 2 1 7 4 E 1025,8 20 60 0,0
09.12.2018 13:00:00 20,6 6,1 3 1 8 4 E 1026,6 20 60 -
09.12.2018 12:00:00 17,5 5,5 2 1 10 5 ENE 1027,6 20 60 0,0
09.12.2018 11:00:00 15,1 5,6 5 3 8 4 E 1028,3 20 60 0,0
09.12.2018 10:00:00 11,8 6,1 3 2 10 6 NNW 1028,2 20 60 0,0
09.12.2018 09:00:00 6,8 4,1 1 1 8 5 WNW 1028,0 11 7 0,0
09.12.2018 08:00:00 7,2 3,6 3 2 13 7 SW 1028,0 20 0 0,0
09.12.2018 07:00:00 6,6 3,8 5 3 14 7 WSW 1028,1 20 0 -
09.12.2018 06:00:00 6,8 3,6 4 2 14 8 W 1027,8 20 0 0,0
09.12.2018 05:00:00 7,6 3,8 8 4 12 7 WSW 1027,9 20 0 0,0
09.12.2018 04:00:00 7,2 3,8 4 2 10 5 W 1027,9 20 0 0,0
09.12.2018 03:00:00 7,2 4,1 3 1 12 7 W 1028,2 20 0 0,0
09.12.2018 02:00:00 7,7 4,8 3 1 13 7 SW 1028,2 20 0 0,0
09.12.2018 01:00:00 7,3 4,8 3 2 10 5 W 1028,6 20 0 -
09.12.2018 00:00:00 7,9 5,0 3 2 10 5 W 1028,6 20 0 0,0
08.12.2018 23:00:00 8,8 5,0 4 2 11 6 SW 1029,0 20 0 0,0
08.12.2018 22:00:00 9,9 5,5 3 2 12 7 SW 1028,8 20 0 0,0
08.12.2018 21:00:00 10,3 6,2 8 4 14 8 W 1028,3 20 0 0,0
08.12.2018 20:00:00 11,0 7,0 9 5 13 7 W 1028,0 20 0 0,0
08.12.2018 19:00:00 12,7 7,1 8 5 12 7 WSW 1027,7 20 0 -
08.12.2018 18:00:00 15,7 6,7 3 1 9 5 S 1027,0 20 0 0,0
08.12.2018 17:00:00 17,6 6,4 5 3 9 5 SE 1026,5 20 34 0,0
08.12.2018 16:00:00 18,6 6,4 4 2 10 5 NNE 1026,5 20 44 0,0
08.12.2018 15:00:00 19,6 5,9 4 2 9 5 NE 1026,2 20 60 0,0
08.12.2018 14:00:00 18,8 5,9 3 1 10 5 E 1027,3 20 60 0,0
08.12.2018 13:00:00 18,4 5,6 5 3 18 10 E 1027,8 20 60 -
08.12.2018 12:00:00 17,7 6,2 3 2 11 6 WSW 1027,9 20 60 0,0
08.12.2018 11:00:00 14,8 6,5 3 2 8 4 SW 1028,6 20 60 0,0
08.12.2018 10:00:00 11,5 7,3 2 1 8 5 SSE 1028,2 19 60 0,0
08.12.2018 09:00:00 8,8 5,5 2 1 12 7 SSW 1026,9 20 19 0,0
08.12.2018 08:00:00 8,8 5,3 7 4 15 8 WSW 1026,5 20 0 0,0
08.12.2018 07:00:00 10,9 5,8 9 5 21 11 SW 1026,0 20 0 -
08.12.2018 06:00:00 8,4 5,3 6 3 9 5 W 1025,7 20 0 0,0
08.12.2018 05:00:00 10,4 5,3 3 2 14 8 S 1025,3 20 0 0,0
08.12.2018 04:00:00 11,9 5,8 5 3 17 9 WSW 1025,0 20 0 0,0
08.12.2018 03:00:00 13,8 5,6 8 4 19 10 W 1024,5 20 0 0,0
08.12.2018 02:00:00 14,7 4,6 6 3 29 15 WSW 1024,4 20 0 0,0
08.12.2018 01:00:00 14,0 5,1 10 6 23 12 WSW 1024,6 20 0 -
08.12.2018 00:00:00 8,9 5,0 3 2 16 9 ENE 1025,2 20 0 0,0
07.12.2018 23:00:00 9,8 4,8 5 3 13 7 SW 1025,1 20 0 0,0
07.12.2018 22:00:00 10,4 5,0 4 2 9 5 SSE 1025,0 19 0 0,0
07.12.2018 21:00:00 12,0 4,6 4 2 16 9 WNW 1024,5 20 0 0,0
07.12.2018 20:00:00 11,6 5,6 3 2 11 6 W 1023,9 16 0 0,0
07.12.2018 19:00:00 13,4 7,0 4 2 9 5 W 1023,7 20 0 -
07.12.2018 18:00:00 17,1 7,1 5 3 10 5 W 1023,0 20 0 0,0
07.12.2018 17:00:00 20,5 7,4 4 2 9 5 ENE 1022,5 20 34 0,0
07.12.2018 16:00:00 23,0 7,6 3 2 7 4 E 1022,5 20 54 0,0
07.12.2018 15:00:00 21,5 7,7 4 2 15 8 ENE 1022,5 20 60 0,0
07.12.2018 14:00:00 20,7 7,3 5 3 9 5 ENE 1024,1 20 60 0,0
07.12.2018 13:00:00 19,9 8,0 4 2 10 5 ESE 1024,3 20 60 -
07.12.2018 12:00:00 17,2 8,4 6 4 14 8 ESE 1026,0 20 60 0,0
07.12.2018 11:00:00 13,9 7,4 3 2 13 7 ENE 1027,0 20 60 0,0
07.12.2018 10:00:00 10,8 6,4 4 2 21 11 SW 1027,5 20 60 0,0
07.12.2018 09:00:00 8,7 5,3 11 6 18 10 WSW 1027,3 20 27 0,0
07.12.2018 08:00:00 8,3 5,3 10 5 21 11 WSW 1027,3 20 0 0,0
07.12.2018 07:00:00 7,8 5,5 5 3 14 7 WSW 1027,2 20 0 -
07.12.2018 06:00:00 8,9 5,9 6 4 18 10 W 1027,0 20 0 0,0
07.12.2018 05:00:00 9,9 6,4 12 6 19 10 WSW 1027,0 20 0 0,0
07.12.2018 04:00:00 9,1 6,8 6 3 12 6 W 1027,1 20 0 0,0
07.12.2018 03:00:00 9,1 6,8 6 3 14 7 SW 1027,3 20 0 0,0
07.12.2018 02:00:00 8,6 6,5 4 2 10 5 SSW 1027,4 20 0 0,0
07.12.2018 01:00:00 8,8 6,5 5 3 12 7 SW 1027,6 20 0 -
07.12.2018 00:00:00 8,9 6,8 5 3 14 8 WSW 1027,6 19 0 0,0
06.12.2018 23:00:00 9,2 7,0 6 3 11 6 WSW 1027,2 18 0 0,0
06.12.2018 22:00:00 10,2 7,6 3 2 6 3 WSW 1026,9 20 0 0,0
06.12.2018 21:00:00 10,7 7,6 1 1 9 5 WNW 1026,7 20 0 0,0
06.12.2018 20:00:00 12,0 7,7 4 2 12 6 WNW 1026,3 19 0 0,0
06.12.2018 19:00:00 14,3 7,8 6 3 9 5 SW 1025,8 20 0 -
06.12.2018 18:00:00 17,6 7,8 3 1 8 4 SSW 1025,2 17 0 0,0
06.12.2018 17:00:00 21,2 6,2 2 1 7 4 NNE 1024,7 20 34 0,0
06.12.2018 16:00:00 22,4 4,8 4 2 12 6 ENE 1024,9 20 55 0,0
06.12.2018 15:00:00 21,8 6,1 6 4 13 7 ENE 1025,2 20 60 0,0
06.12.2018 14:00:00 22,4 7,0 6 3 11 6 E 1025,3 20 60 0,0
06.12.2018 13:00:00 21,5 7,7 3 2 7 4 E 1026,0 20 60 -
06.12.2018 12:00:00 19,1 7,1 2 1 10 5 SE 1026,7 20 60 0,0
06.12.2018 11:00:00 17,0 7,1 4 2 9 5 SW 1027,0 20 60 0,0
06.12.2018 10:00:00 12,2 7,6 2 1 8 5 WSW 1027,2 20 60 0,0
06.12.2018 09:00:00 8,1 5,8 2 1 12 6 E 1026,6 20 28 0,0
06.12.2018 08:00:00 7,9 5,1 5 3 20 11 SW 1026,2 20 0 0,0
06.12.2018 07:00:00 8,7 5,1 3 2 12 7 S 1025,7 20 0 -
06.12.2018 06:00:00 9,2 5,1 4 2 16 9 W 1025,3 20 0 0,0
06.12.2018 05:00:00 9,3 5,6 7 4 13 7 SSE 1025,7 20 0 0,0
06.12.2018 04:00:00 10,9 5,5 3 2 17 9 N 1025,2 20 0 0,0
06.12.2018 03:00:00 13,3 5,5 7 4 26 14 S 1024,9 20 0 0,0
06.12.2018 02:00:00 10,9 6,2 6 3 15 8 W 1024,5 20 0 0,0
06.12.2018 01:00:00 11,3 5,1 4 2 15 8 W 1024,5 20 0 -
06.12.2018 00:00:00 13,5 5,1 13 7 22 12 WSW 1024,4 20 0 0,0

tt = temperature
td = dewpoint
ff = wind speed
fx = gusts
dd = wind direction
ppp = reduced air pressure
vv = visibility
sd = sunshine duration
rr = precipitation

Next stations